,,PressureMeas_1m,,PRMeasQMR101_1,,RHStat155_1m_1,,SRMeasQMS101R_1m,,TAStat155_1m_1,,GenWind_1,,GenWind_1,
2019-01-19, 00:00:06,VALID,917.895,VALID,0.0,VALID,86.633,VALID,0.003,VALID,20.434,VALID,40.0,VALID,2.473,
2019-01-19, 00:01:06,VALID,917.887,VALID,0.0,VALID,86.489,VALID,-0.003,VALID,20.494,VALID,40.0,VALID,2.639,
2019-01-19, 00:02:06,VALID,917.887,VALID,0.0,VALID,86.434,VALID,0.011,VALID,20.487,VALID,40.0,VALID,2.135,
2019-01-19, 00:03:06,VALID,917.885,VALID,0.0,VALID,86.487,VALID,-0.005,VALID,20.458,VALID,41.0,VALID,1.763,
2019-01-19, 00:04:06,VALID,917.861,VALID,0.0,VALID,86.801,VALID,-0.011,VALID,20.372,VALID,41.0,VALID,1.47,
2019-01-19, 00:05:06,VALID,917.869,VALID,0.0,VALID,87.208,VALID,0.013,VALID,20.267,VALID,40.0,VALID,1.979,
2019-01-19, 00:06:06,VALID,917.843,VALID,0.0,VALID,87.453,VALID,0.017,VALID,20.231,VALID,40.0,VALID,2.451,
2019-01-19, 00:07:06,VALID,917.831,VALID,0.0,VALID,86.929,VALID,0.019,VALID,20.357,VALID,40.0,VALID,2.986,
2019-01-19, 00:08:06,VALID,917.838,VALID,0.0,VALID,85.946,VALID,-0.008,VALID,20.564,VALID,40.0,VALID,2.471,
2019-01-19, 00:09:06,VALID,917.834,VALID,0.0,VALID,85.586,VALID,-0.008,VALID,20.623,VALID,40.0,VALID,2.147,
2019-01-19, 00:10:06,VALID,917.829,VALID,0.0,VALID,85.798,VALID,-0.002,VALID,20.561,VALID,40.0,VALID,2.857,
2019-01-19, 00:11:06,VALID,917.809,VALID,0.0,VALID,85.745,VALID,0.006,VALID,20.568,VALID,40.0,VALID,2.996,
2019-01-19, 00:12:06,VALID,917.802,VALID,0.0,VALID,85.768,VALID,-0.02,VALID,20.568,VALID,40.0,VALID,2.729,
2019-01-19, 00:13:06,VALID,917.788,VALID,0.0,VALID,85.844,VALID,-0.026,VALID,20.54,VALID,39.0,VALID,3.023,
2019-01-19, 00:14:06,VALID,917.794,VALID,0.0,VALID,85.711,VALID,-0.029,VALID,20.584,VALID,40.0,VALID,2.812,
2019-01-19, 00:15:06,VALID,917.784,VALID,0.0,VALID,85.602,VALID,-0.02,VALID,20.611,VALID,39.0,VALID,2.275,
2019-01-19, 00:16:06,VALID,917.795,VALID,0.0,VALID,85.708,VALID,-0.02,VALID,20.575,VALID,40.0,VALID,2.462,
2019-01-19, 00:17:06,VALID,917.775,VALID,0.0,VALID,86.009,VALID,-0.036,VALID,20.506,VALID,39.0,VALID,2.585,
2019-01-19, 00:18:06,VALID,917.786,VALID,0.0,VALID,86.106,VALID,-0.022,VALID,20.498,VALID,40.0,VALID,2.866,
2019-01-19, 00:19:06,VALID,917.772,VALID,0.0,VALID,86.363,VALID,-0.011,VALID,20.438,VALID,40.0,VALID,2.61,
2019-01-19, 00:20:06,VALID,917.744,VALID,0.0,VALID,86.431,VALID,-0.015,VALID,20.459,VALID,40.0,VALID,2.076,
2019-01-19, 00:21:06,VALID,917.722,VALID,0.0,VALID,86.482,VALID,-0.022,VALID,20.456,VALID,40.0,VALID,2.907,
2019-01-19, 00:22:06,VALID,917.688,VALID,0.0,VALID,86.222,VALID,-0.006,VALID,20.492,VALID,39.0,VALID,3.317,
2019-01-19, 00:23:06,VALID,917.681,VALID,0.0,VALID,86.034,VALID,-0.024,VALID,20.551,VALID,39.0,VALID,2.311,
2019-01-19, 00:24:06,VALID,917.648,VALID,0.0,VALID,86.252,VALID,-0.004,VALID,20.483,VALID,40.0,VALID,2.127,
2019-01-19, 00:25:06,VALID,917.64,VALID,0.0,VALID,86.537,VALID,-0.0,VALID,20.406,VALID,39.0,VALID,2.541,
2019-01-19, 00:26:06,VALID,917.624,VALID,0.0,VALID,86.451,VALID,-0.01,VALID,20.416,VALID,39.0,VALID,2.824,
2019-01-19, 00:27:06,VALID,917.591,VALID,0.0,VALID,86.238,VALID,-0.009,VALID,20.481,VALID,39.0,VALID,2.207,
2019-01-19, 00:28:06,VALID,917.596,VALID,0.0,VALID,86.286,VALID,-0.014,VALID,20.452,VALID,39.0,VALID,2.104,
2019-01-19, 00:29:06,VALID,917.584,VALID,0.0,VALID,86.394,VALID,-0.008,VALID,20.419,VALID,40.0,VALID,2.586,
2019-01-19, 00:30:06,VALID,917.587,VALID,0.0,VALID,86.432,VALID,-0.004,VALID,20.415,VALID,39.0,VALID,2.885,
2019-01-19, 00:31:06,VALID,917.583,VALID,0.0,VALID,86.246,VALID,0.009,VALID,20.47,VALID,39.0,VALID,3.103,
2019-01-19, 00:32:06,VALID,917.571,VALID,0.0,VALID,85.802,VALID,-0.007,VALID,20.568,VALID,40.0,VALID,3.108,
2019-01-19, 00:33:06,VALID,917.573,VALID,0.0,VALID,85.676,VALID,0.009,VALID,20.578,VALID,40.0,VALID,2.736,
2019-01-19, 00:34:06,VALID,917.551,VALID,0.0,VALID,85.913,VALID,-0.006,VALID,20.505,VALID,40.0,VALID,2.67,
2019-01-19, 00:35:06,VALID,917.535,VALID,0.0,VALID,86.029,VALID,-0.012,VALID,20.487,VALID,40.0,VALID,2.732,
2019-01-19, 00:36:06,VALID,917.53,VALID,0.0,VALID,86.044,VALID,-0.008,VALID,20.483,VALID,39.0,VALID,2.235,
2019-01-19, 00:37:06,VALID,917.51,VALID,0.0,VALID,86.284,VALID,-0.016,VALID,20.442,VALID,39.0,VALID,2.458,
2019-01-19, 00:38:06,VALID,917.489,VALID,0.0,VALID,86.525,VALID,-0.016,VALID,20.392,VALID,40.0,VALID,2.309,
2019-01-19, 00:39:06,VALID,917.476,VALID,0.0,VALID,86.591,VALID,-0.013,VALID,20.398,VALID,40.0,VALID,2.429,
2019-01-19, 00:40:06,VALID,917.473,VALID,0.0,VALID,86.538,VALID,0.003,VALID,20.41,VALID,40.0,VALID,2.305,
2019-01-19, 00:41:06,VALID,917.47,VALID,0.0,VALID,86.624,VALID,-0.012,VALID,20.402,VALID,39.0,VALID,2.682,
2019-01-19, 00:42:06,VALID,917.448,VALID,0.0,VALID,86.731,VALID,-0.009,VALID,20.378,VALID,39.0,VALID,2.506,
2019-01-19, 00:43:06,VALID,917.423,VALID,0.0,VALID,86.911,VALID,0.008,VALID,20.35,VALID,39.0,VALID,2.736,
2019-01-19, 00:44:06,VALID,917.412,VALID,0.0,VALID,86.888,VALID,0.009,VALID,20.344,VALID,39.0,VALID,2.48,
2019-01-19, 00:45:06,VALID,917.425,VALID,0.0,VALID,86.519,VALID,0.023,VALID,20.387,VALID,39.0,VALID,2.768,
2019-01-19, 00:46:06,VALID,917.426,VALID,0.0,VALID,86.347,VALID,0.008,VALID,20.421,VALID,39.0,VALID,2.593,
2019-01-19, 00:47:06,VALID,917.44,VALID,0.0,VALID,86.126,VALID,0.023,VALID,20.435,VALID,39.0,VALID,2.913,
2019-01-19, 00:48:06,VALID,917.456,VALID,0.0,VALID,85.793,VALID,0.017,VALID,20.483,VALID,39.0,VALID,2.607,
2019-01-19, 00:49:06,VALID,917.436,VALID,0.0,VALID,85.847,VALID,0.02,VALID,20.516,VALID,39.0,VALID,2.255,
2019-01-19, 00:50:06,VALID,917.437,VALID,0.0,VALID,86.038,VALID,0.02,VALID,20.481,VALID,37.0,VALID,2.342,
2019-01-19, 00:51:06,VALID,917.439,VALID,0.0,VALID,86.068,VALID,0.035,VALID,20.462,VALID,38.0,VALID,2.933,
2019-01-19, 00:52:06,VALID,917.428,VALID,0.0,VALID,86.038,VALID,0.034,VALID,20.478,VALID,39.0,VALID,2.547,
2019-01-19, 00:53:06,VALID,917.418,VALID,0.0,VALID,86.137,VALID,0.016,VALID,20.453,VALID,39.0,VALID,1.914,
2019-01-19, 00:54:06,VALID,917.403,VALID,0.0,VALID,86.26,VALID,0.021,VALID,20.421,VALID,39.0,VALID,1.884,
2019-01-19, 00:55:06,VALID,917.407,VALID,0.0,VALID,86.364,VALID,0.023,VALID,20.384,VALID,40.0,VALID,1.531,
2019-01-19, 00:56:06,VALID,917.406,VALID,0.0,VALID,86.516,VALID,0.02,VALID,20.336,VALID,39.0,VALID,2.737,
2019-01-19, 00:57:06,VALID,917.396,VALID,0.0,VALID,86.703,VALID,0.002,VALID,20.33,VALID,39.0,VALID,2.591,
2019-01-19, 00:58:06,VALID,917.363,VALID,0.0,VALID,86.483,VALID,0.002,VALID,20.36,VALID,39.0,VALID,2.981,
2019-01-19, 00:59:06,VALID,917.382,VALID,0.0,VALID,86.17,VALID,-0.01,VALID,20.399,VALID,40.0,VALID,2.597,
2019-01-19, 01:00:06,VALID,917.358,VALID,0.0,VALID,86.076,VALID,-0.01,VALID,20.434,VALID,39.0,VALID,3.153,
2019-01-19, 01:01:06,VALID,917.333,VALID,0.0,VALID,85.802,VALID,-0.002,VALID,20.472,VALID,39.0,VALID,2.332,
2019-01-19, 01:02:06,VALID,917.326,VALID,0.0,VALID,85.736,VALID,-0.002,VALID,20.495,VALID,40.0,VALID,2.479,
2019-01-19, 01:03:06,VALID,917.322,VALID,0.0,VALID,85.876,VALID,-0.006,VALID,20.469,VALID,39.0,VALID,2.041,
2019-01-19, 01:04:06,VALID,917.316,VALID,0.0,VALID,85.925,VALID,0.006,VALID,20.429,VALID,39.0,VALID,2.882,
2019-01-19, 01:05:06,VALID,917.324,VALID,0.0,VALID,85.905,VALID,0.008,VALID,20.427,VALID,39.0,VALID,3.026,
2019-01-19, 01:06:06,VALID,917.309,VALID,0.0,VALID,85.724,VALID,0.004,VALID,20.46,VALID,39.0,VALID,2.801,
2019-01-19, 01:07:06,VALID,917.302,VALID,0.0,VALID,85.661,VALID,0.0,VALID,20.477,VALID,39.0,VALID,2.185,
2019-01-19, 01:08:06,VALID,917.293,VALID,0.0,VALID,85.902,VALID,0.006,VALID,20.432,VALID,39.0,VALID,1.733,
2019-01-19, 01:09:06,VALID,917.305,VALID,0.0,VALID,85.958,VALID,-0.007,VALID,20.419,VALID,40.0,VALID,2.772,
2019-01-19, 01:10:06,VALID,917.295,VALID,0.0,VALID,85.811,VALID,-0.006,VALID,20.443,VALID,40.0,VALID,2.756,
2019-01-19, 01:11:06,VALID,917.295,VALID,0.0,VALID,85.74,VALID,0.002,VALID,20.444,VALID,40.0,VALID,2.588,
2019-01-19, 01:12:06,VALID,917.283,VALID,0.0,VALID,85.779,VALID,-0.032,VALID,20.471,VALID,39.0,VALID,2.37,
2019-01-19, 01:13:06,VALID,917.234,VALID,0.0,VALID,85.748,VALID,-0.028,VALID,20.483,VALID,41.0,VALID,1.923,
2019-01-19, 01:14:06,VALID,917.206,VALID,0.0,VALID,85.946,VALID,-0.026,VALID,20.429,VALID,40.0,VALID,2.597,
2019-01-19, 01:15:06,VALID,917.184,VALID,0.0,VALID,85.984,VALID,-0.013,VALID,20.418,VALID,40.0,VALID,2.343,
2019-01-19, 01:16:06,VALID,917.169,VALID,0.0,VALID,86.117,VALID,-0.035,VALID,20.385,VALID,40.0,VALID,1.95,
2019-01-19, 01:17:06,VALID,917.15,VALID,0.0,VALID,86.29,VALID,-0.026,VALID,20.327,VALID,39.0,VALID,2.792,
2019-01-19, 01:18:06,VALID,917.136,VALID,0.0,VALID,86.334,VALID,-0.044,VALID,20.337,VALID,39.0,VALID,2.443,
2019-01-19, 01:19:06,VALID,917.131,VALID,0.0,VALID,85.989,VALID,-0.037,VALID,20.374,VALID,40.0,VALID,1.959,
2019-01-19, 01:20:06,VALID,917.11,VALID,0.0,VALID,85.858,VALID,-0.044,VALID,20.394,VALID,40.0,VALID,2.71,
2019-01-19, 01:21:06,VALID,917.097,VALID,0.0,VALID,85.31,VALID,-0.021,VALID,20.504,VALID,41.0,VALID,2.712,
2019-01-19, 01:22:06,VALID,917.095,VALID,0.0,VALID,85.177,VALID,-0.018,VALID,20.539,VALID,40.0,VALID,2.824,
2019-01-19, 01:23:06,VALID,917.073,VALID,0.0,VALID,85.598,VALID,-0.011,VALID,20.449,VALID,40.0,VALID,2.666,
2019-01-19, 01:24:06,VALID,917.067,VALID,0.0,VALID,86.087,VALID,-0.022,VALID,20.333,VALID,40.0,VALID,2.662,
2019-01-19, 01:25:06,VALID,917.067,VALID,0.0,VALID,86.262,VALID,-0.042,VALID,20.304,VALID,40.0,VALID,3.285,
2019-01-19, 01:26:06,VALID,917.051,VALID,0.0,VALID,86.055,VALID,-0.031,VALID,20.355,VALID,39.0,VALID,2.862,
2019-01-19, 01:27:06,VALID,917.083,VALID,0.0,VALID,86.05,VALID,0.007,VALID,20.368,VALID,40.0,VALID,3.237,
2019-01-19, 01:28:06,VALID,917.085,VALID,0.0,VALID,86.071,VALID,0.011,VALID,20.353,VALID,39.0,VALID,2.811,
2019-01-19, 01:29:06,VALID,917.096,VALID,0.0,VALID,86.351,VALID,0.005,VALID,20.306,VALID,40.0,VALID,2.639,
2019-01-19, 01:30:06,VALID,917.108,VALID,0.0,VALID,86.57,VALID,0.014,VALID,20.264,VALID,40.0,VALID,2.569,
2019-01-19, 01:31:06,VALID,917.099,VALID,0.0,VALID,86.738,VALID,0.008,VALID,20.222,VALID,40.0,VALID,3.013,
2019-01-19, 01:32:06,VALID,917.092,VALID,0.0,VALID,86.683,VALID,0.014,VALID,20.243,VALID,39.0,VALID,2.499,
2019-01-19, 01:33:06,VALID,917.107,VALID,0.0,VALID,86.671,VALID,0.013,VALID,20.272,VALID,39.0,VALID,2.26,
2019-01-19, 01:34:06,VALID,917.074,VALID,0.0,VALID,86.644,VALID,0.006,VALID,20.272,VALID,40.0,VALID,2.426,
2019-01-19, 01:35:06,VALID,917.08,VALID,0.0,VALID,86.678,VALID,0.014,VALID,20.258,VALID,40.0,VALID,2.971,
2019-01-19, 01:36:06,VALID,917.073,VALID,0.0,VALID,86.488,VALID,0.01,VALID,20.275,VALID,40.0,VALID,2.941,
2019-01-19, 01:37:06,VALID,917.068,VALID,0.0,VALID,86.607,VALID,0.025,VALID,20.265,VALID,40.0,VALID,2.872,
2019-01-19, 01:38:06,VALID,917.063,VALID,0.0,VALID,86.718,VALID,0.02,VALID,20.226,VALID,39.0,VALID,3.259,
2019-01-19, 01:39:06,VALID,917.081,VALID,0.0,VALID,86.378,VALID,0.042,VALID,20.299,VALID,40.0,VALID,2.934,
2019-01-19, 01:40:06,VALID,917.063,VALID,0.0,VALID,86.11,VALID,0.039,VALID,20.36,VALID,41.0,VALID,2.205,
2019-01-19, 01:41:06,VALID,917.085,VALID,0.0,VALID,86.505,VALID,0.03,VALID,20.265,VALID,41.0,VALID,2.371,
2019-01-19, 01:42:06,VALID,917.064,VALID,0.0,VALID,86.76,VALID,-0.029,VALID,20.192,VALID,40.0,VALID,2.242,
2019-01-19, 01:43:06,VALID,917.072,VALID,0.0,VALID,86.806,VALID,-0.034,VALID,20.198,VALID,39.0,VALID,3.027,
2019-01-19, 01:44:06,VALID,917.071,VALID,0.0,VALID,86.516,VALID,-0.026,VALID,20.284,VALID,38.0,VALID,2.831,
2019-01-19, 01:45:06,VALID,917.068,VALID,0.0,VALID,86.11,VALID,-0.052,VALID,20.373,VALID,39.0,VALID,3.361,
2019-01-19, 01:46:06,VALID,917.078,VALID,0.0,VALID,85.8,VALID,-0.031,VALID,20.425,VALID,40.0,VALID,2.874,
2019-01-19, 01:47:06,VALID,917.064,VALID,0.0,VALID,85.318,VALID,-0.036,VALID,20.481,VALID,40.0,VALID,3.074,
2019-01-19, 01:48:06,VALID,917.073,VALID,0.0,VALID,85.274,VALID,-0.039,VALID,20.492,VALID,40.0,VALID,2.425,
2019-01-19, 01:49:06,VALID,917.044,VALID,0.0,VALID,85.74,VALID,-0.038,VALID,20.381,VALID,39.0,VALID,2.73,
2019-01-19, 01:50:06,VALID,917.022,VALID,0.0,VALID,85.621,VALID,-0.047,VALID,20.386,VALID,40.0,VALID,2.739,
2019-01-19, 01:51:06,VALID,916.998,VALID,0.0,VALID,85.698,VALID,-0.035,VALID,20.353,VALID,41.0,VALID,2.438,
2019-01-19, 01:52:06,VALID,917.006,VALID,0.0,VALID,86.217,VALID,-0.031,VALID,20.269,VALID,42.0,VALID,2.978,
2019-01-19, 01:53:06,VALID,916.971,VALID,0.0,VALID,86.512,VALID,-0.029,VALID,20.225,VALID,40.0,VALID,3.377,
2019-01-19, 01:54:06,VALID,916.935,VALID,0.0,VALID,86.108,VALID,-0.028,VALID,20.317,VALID,40.0,VALID,3.187,
2019-01-19, 01:55:06,VALID,916.899,VALID,0.0,VALID,85.546,VALID,-0.03,VALID,20.423,VALID,40.0,VALID,3.224,
2019-01-19, 01:56:06,VALID,916.886,VALID,0.0,VALID,85.178,VALID,-0.024,VALID,20.47,VALID,40.0,VALID,2.73,
2019-01-19, 01:57:06,VALID,916.887,VALID,0.0,VALID,85.195,VALID,0.007,VALID,20.46,VALID,40.0,VALID,2.904,
2019-01-19, 01:58:06,VALID,916.879,VALID,0.0,VALID,85.138,VALID,0.011,VALID,20.474,VALID,41.0,VALID,2.267,
2019-01-19, 01:59:06,VALID,916.907,VALID,0.0,VALID,85.467,VALID,0.017,VALID,20.409,VALID,40.0,VALID,2.309,
2019-01-19, 02:00:06,VALID,916.932,VALID,0.0,VALID,85.606,VALID,0.009,VALID,20.363,VALID,40.0,VALID,2.207,
2019-01-19, 02:01:06,VALID,916.925,VALID,0.0,VALID,85.763,VALID,0.008,VALID,20.327,VALID,39.0,VALID,2.032,
2019-01-19, 02:02:06,VALID,916.938,VALID,0.0,VALID,85.589,VALID,0.02,VALID,20.349,VALID,40.0,VALID,1.387,
2019-01-19, 02:03:06,VALID,916.94,VALID,0.0,VALID,85.456,VALID,0.008,VALID,20.369,VALID,39.0,VALID,1.81,
2019-01-19, 02:04:06,VALID,916.913,VALID,0.0,VALID,85.264,VALID,0.006,VALID,20.413,VALID,39.0,VALID,1.345,
2019-01-19, 02:05:06,VALID,916.909,VALID,0.0,VALID,85.226,VALID,0.015,VALID,20.423,VALID,39.0,VALID,1.743,
2019-01-19, 02:06:06,VALID,916.867,VALID,0.0,VALID,85.199,VALID,0.009,VALID,20.424,VALID,40.0,VALID,1.278,
2019-01-19, 02:07:06,VALID,916.866,VALID,0.0,VALID,85.372,VALID,0.02,VALID,20.385,VALID,40.0,VALID,1.665,
2019-01-19, 02:08:06,VALID,916.855,VALID,0.0,VALID,85.584,VALID,0.025,VALID,20.323,VALID,40.0,VALID,2.076,
2019-01-19, 02:09:06,VALID,916.821,VALID,0.0,VALID,85.677,VALID,0.005,VALID,20.289,VALID,40.0,VALID,1.717,
2019-01-19, 02:10:06,VALID,916.853,VALID,0.0,VALID,85.849,VALID,0.01,VALID,20.255,VALID,41.0,VALID,2.034,
2019-01-19, 02:11:06,VALID,916.858,VALID,0.0,VALID,86.082,VALID,0.012,VALID,20.22,VALID,41.0,VALID,1.856,
2019-01-19, 02:12:06,VALID,916.871,VALID,0.0,VALID,86.254,VALID,0.013,VALID,20.192,VALID,40.0,VALID,2.348,
2019-01-19, 02:13:06,VALID,916.889,VALID,0.0,VALID,86.274,VALID,-0.009,VALID,20.204,VALID,40.0,VALID,2.335,
2019-01-19, 02:14:06,VALID,916.896,VALID,0.0,VALID,86.376,VALID,-0.001,VALID,20.194,VALID,39.0,VALID,2.155,
2019-01-19, 02:15:06,VALID,916.922,VALID,0.0,VALID,86.151,VALID,0.005,VALID,20.26,VALID,40.0,VALID,3.135,
2019-01-19, 02:16:06,VALID,916.907,VALID,0.0,VALID,85.296,VALID,0.01,VALID,20.453,VALID,40.0,VALID,2.744,
2019-01-19, 02:17:06,VALID,916.898,VALID,0.0,VALID,85.068,VALID,0.011,VALID,20.514,VALID,40.0,VALID,2.068,
2019-01-19, 02:18:06,VALID,916.916,VALID,0.0,VALID,85.644,VALID,0.015,VALID,20.402,VALID,41.0,VALID,1.897,
2019-01-19, 02:19:06,VALID,916.917,VALID,0.0,VALID,86.274,VALID,-0.01,VALID,20.271,VALID,41.0,VALID,2.208,
2019-01-19, 02:20:06,VALID,916.906,VALID,0.0,VALID,86.377,VALID,-0.001,VALID,20.24,VALID,41.0,VALID,2.465,
2019-01-19, 02:21:06,VALID,916.902,VALID,0.0,VALID,86.191,VALID,-0.004,VALID,20.295,VALID,42.0,VALID,2.361,
2019-01-19, 02:22:06,VALID,916.866,VALID,0.0,VALID,86.353,VALID,-0.004,VALID,20.291,VALID,42.0,VALID,2.038,
2019-01-19, 02:23:06,VALID,916.844,VALID,0.0,VALID,86.684,VALID,0.011,VALID,20.228,VALID,41.0,VALID,1.805,
2019-01-19, 02:24:06,VALID,916.828,VALID,0.0,VALID,86.995,VALID,-0.002,VALID,20.166,VALID,42.0,VALID,1.928,
2019-01-19, 02:25:06,VALID,916.804,VALID,0.0,VALID,87.231,VALID,-0.004,VALID,20.121,VALID,43.0,VALID,2.178,
2019-01-19, 02:26:06,VALID,916.783,VALID,0.0,VALID,87.164,VALID,-0.01,VALID,20.117,VALID,41.0,VALID,2.164,
2019-01-19, 02:27:06,VALID,916.769,VALID,0.0,VALID,86.776,VALID,0.062,VALID,20.188,VALID,40.0,VALID,1.449,
2019-01-19, 02:28:06,VALID,916.761,VALID,0.0,VALID,86.897,VALID,0.064,VALID,20.17,VALID,41.0,VALID,1.352,
2019-01-19, 02:29:06,VALID,916.727,VALID,0.0,VALID,87.268,VALID,0.038,VALID,20.108,VALID,42.0,VALID,1.51,
2019-01-19, 02:30:06,VALID,916.721,VALID,0.0,VALID,87.614,VALID,0.048,VALID,20.032,VALID,41.0,VALID,1.131,
2019-01-19, 02:31:06,VALID,916.715,VALID,0.0,VALID,87.846,VALID,0.067,VALID,19.972,VALID,40.0,VALID,1.312,
2019-01-19, 02:32:06,VALID,916.704,VALID,0.0,VALID,87.892,VALID,0.064,VALID,19.944,VALID,41.0,VALID,1.396,
2019-01-19, 02:33:06,VALID,916.687,VALID,0.0,VALID,87.701,VALID,0.075,VALID,19.961,VALID,40.0,VALID,1.881,
2019-01-19, 02:34:06,VALID,916.668,VALID,0.0,VALID,87.389,VALID,0.06,VALID,20.029,VALID,40.0,VALID,2.126,
2019-01-19, 02:35:06,VALID,916.647,VALID,0.0,VALID,86.98,VALID,0.05,VALID,20.096,VALID,41.0,VALID,1.564,
2019-01-19, 02:36:06,VALID,916.635,VALID,0.0,VALID,87.049,VALID,0.042,VALID,20.064,VALID,41.0,VALID,1.48,
2019-01-19, 02:37:06,VALID,916.605,VALID,0.0,VALID,87.348,VALID,0.056,VALID,19.995,VALID,40.0,VALID,1.593,
2019-01-19, 02:38:06,VALID,916.588,VALID,0.0,VALID,87.694,VALID,0.064,VALID,19.94,VALID,40.0,VALID,1.872,
2019-01-19, 02:39:06,VALID,916.579,VALID,0.0,VALID,87.783,VALID,0.059,VALID,19.904,VALID,40.0,VALID,1.862,
2019-01-19, 02:40:06,VALID,916.559,VALID,0.0,VALID,87.865,VALID,0.06,VALID,19.894,VALID,41.0,VALID,1.617,
2019-01-19, 02:41:06,VALID,916.537,VALID,0.0,VALID,88.017,VALID,0.048,VALID,19.875,VALID,42.0,VALID,2.068,
2019-01-19, 02:42:06,VALID,916.515,VALID,0.0,VALID,88.366,VALID,0.001,VALID,19.815,VALID,42.0,VALID,1.844,
2019-01-19, 02:43:06,VALID,916.5,VALID,0.0,VALID,88.826,VALID,0.0,VALID,19.734,VALID,41.0,VALID,1.516,
2019-01-19, 02:44:06,VALID,916.471,VALID,0.0,VALID,89.153,VALID,0.011,VALID,19.669,VALID,40.0,VALID,1.665,
2019-01-19, 02:45:06,VALID,916.464,VALID,0.0,VALID,89.248,VALID,0.012,VALID,19.67,VALID,40.0,VALID,2.078,
2019-01-19, 02:46:06,VALID,916.456,VALID,0.0,VALID,88.733,VALID,0.006,VALID,19.736,VALID,40.0,VALID,2.104,
2019-01-19, 02:47:06,VALID,916.425,VALID,0.0,VALID,88.721,VALID,-0.005,VALID,19.737,VALID,40.0,VALID,1.918,
2019-01-19, 02:48:06,VALID,916.422,VALID,0.0,VALID,88.655,VALID,-0.001,VALID,19.759,VALID,41.0,VALID,1.761,
2019-01-19, 02:49:06,VALID,916.411,VALID,0.0,VALID,88.759,VALID,0.014,VALID,19.741,VALID,41.0,VALID,1.805,
2019-01-19, 02:50:06,VALID,916.394,VALID,0.0,VALID,88.747,VALID,-0.0,VALID,19.747,VALID,40.0,VALID,2.516,
2019-01-19, 02:51:06,VALID,916.393,VALID,0.0,VALID,88.307,VALID,-0.009,VALID,19.85,VALID,40.0,VALID,1.868,
2019-01-19, 02:52:06,VALID,916.398,VALID,0.0,VALID,88.025,VALID,-0.003,VALID,19.895,VALID,39.0,VALID,1.602,
2019-01-19, 02:53:06,VALID,916.388,VALID,0.0,VALID,87.857,VALID,-0.014,VALID,19.902,VALID,39.0,VALID,1.156,
2019-01-19, 02:54:06,VALID,916.386,VALID,0.0,VALID,87.757,VALID,-0.001,VALID,19.917,VALID,39.0,VALID,1.337,
2019-01-19, 02:55:06,VALID,916.384,VALID,0.0,VALID,87.696,VALID,-0.009,VALID,19.929,VALID,39.0,VALID,1.004,
2019-01-19, 02:56:06,VALID,916.36,VALID,0.0,VALID,87.768,VALID,0.002,VALID,19.92,VALID,39.0,VALID,1.355,
2019-01-19, 02:57:06,VALID,916.336,VALID,0.0,VALID,87.843,VALID,0.001,VALID,19.928,VALID,39.0,VALID,1.66,
2019-01-19, 02:58:06,VALID,916.326,VALID,0.0,VALID,87.694,VALID,-0.002,VALID,19.924,VALID,39.0,VALID,1.306,
2019-01-19, 02:59:06,VALID,916.29,VALID,0.0,VALID,87.83,VALID,-0.009,VALID,19.888,VALID,39.0,VALID,1.316,
2019-01-19, 03:00:06,VALID,916.261,VALID,0.0,VALID,87.936,VALID,0.003,VALID,19.864,VALID,38.0,VALID,0.981,
2019-01-19, 03:01:06,VALID,916.225,VALID,0.0,VALID,88.07,VALID,0.018,VALID,19.83,VALID,39.0,VALID,0.862,
2019-01-19, 03:02:06,VALID,916.206,VALID,0.0,VALID,88.214,VALID,0.005,VALID,19.825,VALID,39.0,VALID,1.226,
2019-01-19, 03:03:06,VALID,916.174,VALID,0.0,VALID,88.095,VALID,0.017,VALID,19.855,VALID,39.0,VALID,2.248,
2019-01-19, 03:04:06,VALID,916.169,VALID,0.0,VALID,87.742,VALID,-0.018,VALID,19.921,VALID,39.0,VALID,1.877,
2019-01-19, 03:05:06,VALID,916.145,VALID,0.0,VALID,87.817,VALID,-0.038,VALID,19.896,VALID,39.0,VALID,1.567,
2019-01-19, 03:06:06,VALID,916.121,VALID,0.0,VALID,88.016,VALID,-0.039,VALID,19.861,VALID,39.0,VALID,1.651,
2019-01-19, 03:07:06,VALID,916.112,VALID,0.0,VALID,88.094,VALID,-0.011,VALID,19.858,VALID,40.0,VALID,1.849,
2019-01-19, 03:08:06,VALID,916.081,VALID,0.0,VALID,87.862,VALID,-0.024,VALID,19.924,VALID,39.0,VALID,0.929,
2019-01-19, 03:09:06,VALID,916.063,VALID,0.0,VALID,87.708,VALID,-0.03,VALID,19.935,VALID,40.0,VALID,1.228,
2019-01-19, 03:10:06,VALID,916.044,VALID,0.0,VALID,87.769,VALID,-0.039,VALID,19.911,VALID,39.0,VALID,0.898,
2019-01-19, 03:11:06,VALID,916.033,VALID,0.0,VALID,87.972,VALID,-0.033,VALID,19.872,VALID,39.0,VALID,1.896,
2019-01-19, 03:12:06,VALID,915.992,VALID,0.0,VALID,88.13,VALID,0.009,VALID,19.813,VALID,41.0,VALID,1.807,
2019-01-19, 03:13:06,VALID,915.992,VALID,0.0,VALID,88.494,VALID,0.009,VALID,19.762,VALID,40.0,VALID,2.569,
2019-01-19, 03:14:06,VALID,915.978,VALID,0.0,VALID,88.492,VALID,-0.001,VALID,19.81,VALID,40.0,VALID,2.332,
2019-01-19, 03:15:06,VALID,915.967,VALID,0.0,VALID,88.348,VALID,0.02,VALID,19.825,VALID,40.0,VALID,2.299,
2019-01-19, 03:16:06,VALID,915.921,VALID,0.0,VALID,88.35,VALID,0.018,VALID,19.845,VALID,41.0,VALID,2.118,
2019-01-19, 03:17:06,VALID,915.917,VALID,0.0,VALID,88.381,VALID,0.01,VALID,19.828,VALID,42.0,VALID,1.818,
2019-01-19, 03:18:06,VALID,915.915,VALID,0.0,VALID,88.502,VALID,0.014,VALID,19.795,VALID,42.0,VALID,1.763,
2019-01-19, 03:19:06,VALID,915.913,VALID,0.0,VALID,88.627,VALID,0.015,VALID,19.764,VALID,41.0,VALID,1.911,
2019-01-19, 03:20:06,VALID,915.878,VALID,0.0,VALID,88.863,VALID,0.01,VALID,19.71,VALID,41.0,VALID,2.085,
2019-01-19, 03:21:06,VALID,915.866,VALID,0.0,VALID,89.114,VALID,0.019,VALID,19.69,VALID,42.0,VALID,2.299,
2019-01-19, 03:22:06,VALID,915.854,VALID,0.0,VALID,89.189,VALID,0.025,VALID,19.678,VALID,41.0,VALID,2.276,
2019-01-19, 03:23:06,VALID,915.82,VALID,0.0,VALID,89.475,VALID,0.005,VALID,19.639,VALID,40.0,VALID,2.482,
2019-01-19, 03:24:06,VALID,915.807,VALID,0.0,VALID,89.488,VALID,0.015,VALID,19.672,VALID,39.0,VALID,2.108,
2019-01-19, 03:25:06,VALID,915.792,VALID,0.0,VALID,89.183,VALID,0.028,VALID,19.724,VALID,39.0,VALID,2.086,
2019-01-19, 03:26:06,VALID,915.804,VALID,0.0,VALID,88.987,VALID,0.02,VALID,19.765,VALID,39.0,VALID,1.701,
2019-01-19, 03:27:06,VALID,915.842,VALID,0.0,VALID,88.971,VALID,-0.035,VALID,19.764,VALID,39.0,VALID,1.436,
2019-01-19, 03:28:06,VALID,915.855,VALID,0.0,VALID,89.085,VALID,-0.018,VALID,19.732,VALID,39.0,VALID,1.436,
2019-01-19, 03:29:06,VALID,915.868,VALID,0.0,VALID,89.454,VALID,-0.03,VALID,19.673,VALID,39.0,VALID,1.151,
2019-01-19, 03:30:06,VALID,915.878,VALID,0.0,VALID,89.868,VALID,-0.029,VALID,19.602,VALID,39.0,VALID,1.473,
2019-01-19, 03:31:06,VALID,915.898,VALID,0.0,VALID,90.098,VALID,-0.015,VALID,19.557,VALID,39.0,VALID,1.571,
2019-01-19, 03:32:06,VALID,915.872,VALID,0.0,VALID,89.959,VALID,-0.038,VALID,19.614,VALID,39.0,VALID,1.956,
2019-01-19, 03:33:06,VALID,915.887,VALID,0.0,VALID,89.497,VALID,-0.022,VALID,19.697,VALID,39.0,VALID,1.596,
2019-01-19, 03:34:06,VALID,915.889,VALID,0.0,VALID,89.302,VALID,-0.02,VALID,19.715,VALID,39.0,VALID,2.377,
2019-01-19, 03:35:06,VALID,915.9,VALID,0.0,VALID,89.244,VALID,-0.014,VALID,19.747,VALID,39.0,VALID,2.149,
2019-01-19, 03:36:06,VALID,915.895,VALID,0.0,VALID,88.991,VALID,-0.031,VALID,19.783,VALID,39.0,VALID,1.702,
2019-01-19, 03:37:06,VALID,915.899,VALID,0.0,VALID,88.967,VALID,-0.021,VALID,19.783,VALID,40.0,VALID,1.002,
2019-01-19, 03:38:06,VALID,915.914,VALID,0.0,VALID,88.91,VALID,-0.03,VALID,19.774,VALID,40.0,VALID,1.17,
2019-01-19, 03:39:06,VALID,915.928,VALID,0.0,VALID,88.992,VALID,-0.034,VALID,19.766,VALID,39.0,VALID,1.437,
2019-01-19, 03:40:06,VALID,915.93,VALID,0.0,VALID,88.896,VALID,-0.027,VALID,19.803,VALID,40.0,VALID,1.98,